Torna al catalogo

STARLINK-5973

AttivoComunicazioniVLEO
NORAD 56916·PAYLOAD·🇺🇸 United States

Lanciato Jun 12, 2023 da Cape Canaveral Space Force Station

Loading…

Prossimi Passaggi (prossime 24 ore)

TLE

AggiornatoSource: CelesTrak SupGP

Epoca: Sep 14, 2026, 13:32 UTC

1 56916C 23083AS  26257.56437500  .00000760  00000+0  27502-4 0  2574
2 56916  43.0007  83.9557 0001270 240.5068 158.4827 15.27608829    19

Traccia STARLINK-5973 in tempo reale con AllMySat

Download on the App Store